Location: Malvern Link
(52.1333°N, 2.3000°W)
Time: 19:01:46
(UTC+00:00)

Lacrosse 4 Rocket - Pass Details

Date: 18 September 2020
Orbit: 543 x 615 km, 68.0° (Epoch: 21 October)

Event Time Altitude Azimuth Distance (km) Brightness Sun altitude
Rises 20:56:37 0° 327° (NNW) 2,718 6.1 -23.7°
Reaches altitude 10° 20:59:00 10° 338° (NNW) 1,823 4.8 -24.0°
Enters shadow 21:02:10 30° 27° (NNE) 1,003 2.7 -24.4°
